Regional Weather Roundup
Issued by NWS Kansas City/Pleasant Hill, MO

Current Version | Previous Version | Text Only | Print | Product List | Glossary On
Versions: 1 2 3 4 5 6 7 8 9 10 11 12 13 14 15 16 17 18 19 20 21 22 23 24 25 26 27 28 29 30 31 32 33 34 35 36 37 38 39 40 41 42 43 44 45 46 47 48 49 50
000
ASUS43 KEAX 251311
RWREAX

WEATHER ROUNDUP FOR EASTERN KANSAS AND NORTHWEST MISSOURI
NATIONAL WEATHER SERVICE KANSAS CITY/PLEASANT HILL MO
800 AM CDT FRI JUL 25 2014

KSZ040-057-103>105-MOZ028-029-037-043-251400-
...KANSAS CITY METROPOLITAN AREA...

CITY           SKY/WX    TMP DP  RH WIND       PRES   REMARKS
K.C. INTL      PTSUNNY   74  68  81 S16       29.89F
K.C. DOWNTOWN  CLOUDY    74  66  76 S12       29.90F
LEES SUMMIT    PTSUNNY   71  64  78 S12G17    29.94F
OLATHE - IXD   CLOUDY    74  69  85 SE10      29.93R
OLATHE - OJC   CLOUDY    73  68  84 SE10      29.93R
LAWRENCE       PTSUNNY   76  70  82 SE9       29.89S

$$

MOZ001>008-011>017-020>025-030>033-038>040-044>046-053-054-251400-
...NORTHERN AND CENTRAL MISSOURI...

CITY           SKY/WX    TMP DP  RH WIND       PRES   REMARKS
ST. JOSEPH     CLOUDY    73  67  81 S15       29.85F
MOSBY          PTSUNNY   70  63  78 SE8       29.90F
WARRENSBURG    PTSUNNY   70  63  78 S8        29.95F
WHITEMAN AFB   MOSUNNY   70  53  55 S13       29.96S
CLINTON        PTSUNNY   73  66  78 S9        29.99R
SEDALIA        CLOUDY    70  59  68 S12       29.98F
WARSAW         NOT AVBL
MARSHALL       CLOUDY    70  61  73 S9        29.96F
CHILLICOTHE      N/A     70  59  68 S9        29.91F
MOBERLY        CLOUDY    68  55  64 SE12      29.98F
KIRKSVILLE     TSTM      63  57  81 E14       30.03R

$$

MOZ041-047>049-056>058-063>065-088>090-097-251400-
...EASTERN AND SOUTHERN MISSOURI...

CITY           SKY/WX    TMP DP  RH WIND       PRES   REMARKS
ST. LOUIS INTL CLOUDY    69  58  67 S3        30.09R
SPIRIT OF STL  CLOUDY    66  59  78 CALM      30.07R
COLUMBIA       CLOUDY    67  58  72 S13       30.01F
JEFFERSON CITY CLOUDY    68  57  68 SE6       30.02F
HANNIBAL       CLOUDY    66  55  68 E3        30.07R
ROLLA          PTSUNNY   67  57  70 S16       30.04R
LEBANON        MOSUNNY   68  59  73 S7        30.05S
OSAGE BEACH    MOSUNNY   66  55  68 SE8       30.03R
SPRINGFIELD    MOSUNNY   70  62  76 S14       30.03R
BRANSON        PTSUNNY   68  63  83 S8        30.07R
NEVADA         PTSUNNY   72  68  88 S10       29.98R
JOPLIN         MOSUNNY   74  70  87 S13       29.98F
WEST PLAINS    MOSUNNY   68  59  73 S8        30.10R

$$

IAZ060-094-KSZ022-034>040-054-083-096-NEZ052-066-093-251400-
...KANSAS...SOUTHEAST NEBRASKA AND IOWA...

CITY           SKY/WX    TMP DP  RH WIND       PRES   REMARKS
TOPEKA         PTSUNNY   79  71  76 SE7       29.87R
MANHATTAN      SUNNY     78  69  73 SW14      29.83R
EMPORIA        MOSUNNY   75  69  81 S8        29.91R
CHANUTE        SUNNY     75  70  84 S16G25    29.94S
WICHITA        MOSUNNY   75  68  78 S13       29.92R
OMAHA          PTSUNNY   73  62  68 SE15      29.81R
LINCOLN        SUNNY     76  70  82 S12       29.75F
FALLS CITY     CLOUDY    74  69  85 S12       29.81F
LAMONI         PTSUNNY   66  57  72 E7        29.91F
DES MOINES     CLOUDY    66  58  75 SE16G30   29.91F

$$




USA.gov is the U.S. government's official web portal to all federal, state and local government web resources and services.